La Grange, GA

1:44 PM EDT on April 25, 2017 (GMT -0400)
Lagrange-Callaway

Weather History for KLGC - March, 2014

Change the Weather History Date:

Sunday, March 23, 2014

  Actual Average Record
Temperature  
Mean Temperature 55 °F -  
Max Temperature 63 °F 69 °F 82 °F (1975)
Min Temperature 47 °F 39 °F 24 °F (1963)
Degree Days  
Heating Degree Days 10    
Growing Degree Days 5 (Base 50)    
Moisture  
Dew Point 48 °F    
Average Humidity 83    
Maximum Humidity 97    
Minimum Humidity 63    
Precipitation  
Precipitation 0.00 in - - ()
Sea Level Pressure  
Sea Level Pressure 30.04 in    
Wind  
Wind Speed 3 mph (NNW)    
Max Wind Speed 18 mph    
Max Gust Speed 24 mph    
Visibility 10 miles    
Events Rain    
Averages and records for this station are not official NWS values.
T = Trace of Precipitation, MM = Missing Value Source: NWS Daily Summary

Daily Weather History Graph

Daily Weather History Graph

Search for Another Location

Airport or City:

Trip Planner

Search our weather history database for the weather conditions in past years. The results will help you decide how hot, cold, wet, or windy it might be!

Date:

Astronomy

Mar. 23, 2014 Rise Set
Actual Time 7:40 AM EDT 7:54 PM EDT
Civil Twilight 7:15 AM EDT 8:18 PM EDT
Nautical Twilight 6:46 AM EDT 8:47 PM EDT
Astronomical Twilight 6:17 AM EDT 9:16 PM EDT
Moon 1:55 AM EDT (3/23) 12:35 PM EDT (3/23)
Length of Visible Light 13h 03m
Length of Day
12h 14m
Waning Gibbous, 55% of the Moon is Illuminated
Mar 23
Waning Gibbous
Mar 23
Last Quarter
Mar 30
New
Apr 7
First Quarter
Apr 15
Full

Hourly Weather History & Observations

Time (EDT) Temp. Dew Point Humidity Pressure Visibility Wind Dir Wind Speed Gust Speed Precip Events Conditions
12:15 AM 52.7 °F 48.2 °F 85% 30.03 in 10.0 mi Calm Calm - N/A   Clear
12:35 AM 53.4 °F 48.4 °F 83% 30.03 in 10.0 mi Calm Calm - N/A   Clear
12:55 AM 52.7 °F 48.6 °F 86% 30.03 in 10.0 mi Calm Calm - N/A   Clear
1:15 AM 52.0 °F 48.0 °F 86% 30.02 in 10.0 mi Calm Calm - N/A   Clear
1:35 AM 50.9 °F 48.4 °F 91% 30.01 in 10.0 mi Calm Calm - N/A   Clear
1:55 AM 51.3 °F 48.7 °F 91% 30.01 in 10.0 mi Calm Calm - N/A   Clear
2:15 AM 50.0 °F 48.2 °F 94% 30.00 in 10.0 mi Calm Calm - N/A   Clear
2:35 AM 50.2 °F 48.2 °F 93% 29.99 in 10.0 mi Calm Calm - N/A   Clear
2:55 AM 50.0 °F 47.8 °F 92% 29.99 in 10.0 mi Calm Calm - N/A   Clear
3:15 AM 50.4 °F 47.7 °F 90% 29.99 in 10.0 mi Calm Calm - N/A   Clear
3:35 AM 49.6 °F 48.0 °F 94% 29.98 in 10.0 mi Calm Calm - N/A   Clear
3:55 AM 50.4 °F 48.2 °F 92% 29.97 in 10.0 mi Calm Calm - N/A   Clear
4:15 AM 49.3 °F 47.1 °F 92% 29.97 in 10.0 mi Calm Calm - N/A   Clear
4:35 AM 49.3 °F 47.7 °F 94% 29.97 in 10.0 mi Calm Calm - N/A   Clear
4:55 AM 48.6 °F 47.5 °F 96% 29.96 in 10.0 mi Calm Calm - N/A   Clear
5:15 AM 48.2 °F 47.5 °F 97% 29.96 in 7.0 mi Calm Calm - N/A   Clear
5:35 AM 49.1 °F 47.1 °F 93% 29.97 in 10.0 mi Calm Calm - N/A   Clear
5:55 AM 48.7 °F 47.3 °F 95% 29.98 in 10.0 mi WNW 4.6 mph - N/A   Clear
6:15 AM 49.3 °F 47.3 °F 93% 29.98 in 10.0 mi Calm Calm - N/A   Clear
6:35 AM 49.1 °F 47.7 °F 95% 29.98 in 10.0 mi Calm Calm - N/A   Clear
6:55 AM 49.1 °F 48.2 °F 97% 29.97 in 10.0 mi Calm Calm - N/A   Clear
7:15 AM 50.0 °F 48.7 °F 95% 29.98 in 10.0 mi Calm Calm - N/A   Clear
7:35 AM 50.9 °F 48.7 °F 92% 29.98 in 10.0 mi Calm Calm - N/A   Clear
7:55 AM 51.8 °F 48.7 °F 89% 29.99 in 10.0 mi Calm Calm - N/A   Scattered Clouds
8:15 AM 52.3 °F 49.8 °F 91% 30.01 in 10.0 mi Calm Calm - N/A   Mostly Cloudy
8:35 AM 52.5 °F 50.0 °F 91% 30.02 in 10.0 mi Calm Calm - N/A   Overcast
8:55 AM 54.3 °F 51.6 °F 91% 30.03 in 10.0 mi NNW 5.8 mph - N/A Rain Light Rain
9:15 AM 56.3 °F 53.4 °F 90% 30.05 in 7.0 mi NNW 10.4 mph - N/A Rain Light Rain
9:35 AM 55.8 °F 53.8 °F 93% 30.06 in 5.0 mi North 8.1 mph - N/A Rain Light Rain
9:55 AM 54.9 °F 52.9 °F 93% 30.07 in 5.0 mi NNE 4.6 mph - N/A Rain Light Rain
10:15 AM 53.1 °F 50.9 °F 92% 30.07 in 7.0 mi North 5.8 mph - N/A Rain Light Rain
10:35 AM 52.7 °F 50.7 °F 93% 30.07 in 7.0 mi NNE 3.5 mph - N/A Rain Light Rain
10:55 AM 52.9 °F 50.9 °F 93% 30.07 in 7.0 mi NNE 3.5 mph - N/A Rain Light Rain
11:15 AM 52.7 °F 50.4 °F 92% 30.07 in 7.0 mi NE 3.5 mph - N/A Rain Light Rain
11:35 AM 52.7 °F 50.4 °F 92% 30.06 in 10.0 mi Calm Calm - N/A Rain Light Rain
11:55 AM 53.2 °F 51.8 °F 95% 30.07 in 10.0 mi North 3.5 mph - N/A Rain Light Rain
12:15 PM 53.1 °F 50.9 °F 92% 30.07 in 10.0 mi North 6.9 mph - N/A Rain Light Rain
12:35 PM 53.6 °F 51.6 °F 93% 30.06 in 10.0 mi Calm Calm - N/A   Light Drizzle
12:55 PM 53.8 °F 51.6 °F 92% 30.05 in 10.0 mi NNE 4.6 mph - N/A   Overcast
1:15 PM 53.8 °F 51.8 °F 93% 30.05 in 10.0 mi North 6.9 mph - N/A   Overcast
1:35 PM 54.5 °F 52.0 °F 91% 30.06 in 10.0 mi NNW 8.1 mph - N/A   Overcast
1:55 PM 55.8 °F 52.9 °F 90% 30.05 in 10.0 mi NW 3.5 mph - N/A   Overcast
2:15 PM 57.2 °F 52.3 °F 84% 30.04 in 10.0 mi NNW 8.1 mph - N/A   Overcast
2:35 PM 58.8 °F 52.9 °F 81% 30.03 in 10.0 mi North 5.8 mph - N/A   Overcast
2:55 PM 60.6 °F 53.8 °F 78% 30.02 in 10.0 mi NW 6.9 mph - N/A   Mostly Cloudy
3:15 PM 61.9 °F 54.0 °F 75% 30.02 in 10.0 mi NW 10.4 mph - N/A   Mostly Cloudy
3:35 PM 62.8 °F 52.5 °F 69% 30.02 in 10.0 mi NW 13.8 mph 17.3 mph N/A   Overcast
3:55 PM 63.5 °F 51.3 °F 64% 30.01 in 10.0 mi North 11.5 mph 19.6 mph N/A   Mostly Cloudy
4:15 PM 62.8 °F 50.2 °F 63% 30.01 in 10.0 mi NNW 11.5 mph 18.4 mph N/A   Scattered Clouds
4:35 PM 63.0 °F 50.2 °F 63% 30.02 in 10.0 mi NNW 12.7 mph 17.3 mph N/A   Mostly Cloudy
4:55 PM 61.9 °F 49.3 °F 63% 30.02 in 10.0 mi NNW 18.4 mph 24.2 mph N/A   Overcast
5:15 PM 60.6 °F 48.4 °F 64% 30.04 in 10.0 mi North 12.7 mph 21.9 mph N/A   Mostly Cloudy
5:35 PM 57.6 °F 47.1 °F 68% 30.04 in 10.0 mi NNW 11.5 mph 21.9 mph N/A   Scattered Clouds
5:55 PM 56.5 °F 46.4 °F 69% 30.06 in 10.0 mi NNW 10.4 mph 19.6 mph N/A   Overcast
6:15 PM 56.3 °F 45.9 °F 68% 30.06 in 10.0 mi NNW 11.5 mph 17.3 mph N/A   Overcast
6:35 PM 57.0 °F 45.9 °F 66% 30.06 in 10.0 mi North 6.9 mph - N/A   Mostly Cloudy
6:55 PM 56.8 °F 45.1 °F 65% 30.07 in 10.0 mi NW 11.5 mph - N/A   Scattered Clouds
7:15 PM 55.9 °F 44.2 °F 65% 30.08 in 10.0 mi NNW 8.1 mph - N/A   Clear
7:35 PM 55.0 °F 43.0 °F 64% 30.08 in 10.0 mi NNW 6.9 mph - N/A   Clear
7:55 PM 54.0 °F 42.8 °F 66% 30.09 in 10.0 mi North 3.5 mph - N/A   Clear
8:15 PM 53.1 °F 42.6 °F 68% 30.09 in 10.0 mi NNW 3.5 mph - N/A   Clear
8:35 PM 51.6 °F 42.8 °F 72% 30.09 in 10.0 mi Calm Calm - N/A   Clear
8:55 PM 51.1 °F 42.8 °F 73% 30.09 in 10.0 mi Calm Calm - N/A   Clear
9:15 PM 49.5 °F 42.1 °F 76% 30.11 in 10.0 mi WNW 3.5 mph - N/A   Clear
9:35 PM 49.3 °F 42.3 °F 77% 30.11 in 10.0 mi Calm Calm - N/A   Clear
9:55 PM 47.7 °F 42.4 °F 82% 30.12 in 10.0 mi Calm Calm - N/A   Clear
10:15 PM 47.7 °F 42.3 °F 82% 30.14 in 10.0 mi NNW 4.6 mph - N/A   Clear
10:35 PM 49.1 °F 41.9 °F 76% 30.14 in 10.0 mi NNW 3.5 mph - N/A   Clear
10:55 PM 50.4 °F 40.5 °F 69% 30.14 in 10.0 mi North 3.5 mph - N/A   Clear
11:15 PM 50.5 °F 39.7 °F 66% 30.15 in 10.0 mi NNW 4.6 mph - N/A   Clear
11:35 PM 50.7 °F 38.8 °F 64% 30.15 in 10.0 mi North 4.6 mph - N/A   Clear
11:55 PM 50.2 °F 38.1 °F 63% 30.15 in 10.0 mi North 3.5 mph - N/A   Clear